[[{"header":{"parameterUnit":"m.s-1","parameterCategory":1,"la1":30.2991,"la2":30.254,"lo1":-89.0895,"lo2":-89.0444,"dy":0.0017,"dx":0.0017,"nx":28,"ny":28,"refTime":"2025-06-20T03:00:00:Z","depth":0,"parameterNumber":2,"parameterNumberName":"U-component_of_WINDS"},"data":[0,0,0,0,0,0,0,0,0,0,0,0,0,0,0,0,0,0,0,0,0,0,0,0,0,0,0,0,0,0,0,0,0,0,0,0,0,0,0,0,0,0,0,0,0,0,0,0,0,0,0,0,0,0,0,0,0,0,0.0239,0.0238,0,0.0201,0.0201,0.02,0.0129,0.0128,0.0126,0.0125,0.009,0.0091,0.0091,0,0,0,0,0,0,0,0,0,0,0,0,0,0.0251,0.0251,0.0239,0.0238,0.0238,0.0201,0.0201,0.02,0.0129,0.0128,0.0126,0.0124,0.009,0.0091,0.0091,0,0,0,0,0,0,0,0,0,0,0,0,0,0.0233,0.0251,0.0239,0.0198,0.0194,0.0201,0.0201,0.02,0.013,0.0127,0.0125,0.0123,0.009,0.009,0.0091,0.0137,0,0,0.0093,0.0093,0,0,0,0,0,0,0,0,0.0234,0.0233,0.0204,0.0201,0.0196,0.0168,0.0192,0.0179,0.013,0.0154,0.0125,0.0122,0.0118,0.0116,0.0114,0.0135,0.0134,0.0093,0.0093,0.0093,0.0094,0,0,0,0,0,0,0,0.0236,0.0234,0.0224,0.0204,0.0199,0.0182,0.0177,0.019,0.0148,0.0152,0.0147,0.0143,0.0115,0.0113,0.0112,0.0133,0.0093,0.0093,0.0094,0.0094,0.0191,0.0193,0,0,0,0,0,0,0.0242,0.0236,0.0225,0.0223,0.021,0.0184,0.0178,0.0179,0.0148,0.0141,0.0145,0.014,0.0113,0.0112,0.0111,0.0164,0.0093,0.0094,0.0094,0.0189,0.0192,0.0194,0,0,0,0,0,0,0.0243,0.0242,0.0227,0.0228,0.0224,0.0186,0.0187,0.0179,0.0177,0.0143,0.0135,0.015,0.0112,0.011,0.0131,0.0162,0.0094,0.0095,0.0186,0.019,0.0193,0.027,0,0,0,0,0,0,0.0244,0.0243,0.026,0.0229,0.0225,0.0247,0.0189,0.018,0.0178,0.0171,0.0146,0.014,0.011,0.013,0.0131,0.0161,0.0095,0.0183,0.0188,0.0192,0.0265,0.0276,0.0285,0,0,0,0,0,0.0244,0.0283,0.0261,0.026,0.0244,0.0249,0.0247,0.0211,0.0181,0.0198,0.0175,0.0141,0.0157,0.0133,0.0134,0.0164,0.0181,0.0186,0.0191,0.026,0.0274,0.0285,0,0,0,0,0,0,0.0321,0.0279,0.0253,0.0283,0.027,0.0237,0.0257,0.0226,0.0222,0.0216,0.0172,0.0167,0.0194,0.018,0.0154,0.0207,0.0164,0.0169,0.0216,0.0228,0.0238,0.0243,0.0096,0,0,0,0,0,0.0341,0.0347,0.031,0.034,0.0334,0.0297,0.0297,0.027,0.0256,0.025,0.0229,0.0217,0.0219,0.0222,0.0223,0.0261,0.0256,0.0282,0.0292,0.0301,0.0307,0.0328,0.034,0.021,0.021,0.021,0,0,0.0383,0.036,0.0368,0.0355,0.0341,0.035,0.0293,0.0304,0.0311,0.0252,0.0271,0.0255,0.0238,0.0268,0.0281,0.0258,0.0341,0.0307,0.0314,0.0316,0.0335,0.0347,0.0358,0.0214,0.0213,0.0213,0,0,0.0465,0.0447,0.0471,0.0459,0.0438,0.0413,0.0418,0.0389,0.0376,0.0394,0.035,0.0357,0.0362,0.0352,0.0348,0.0424,0.0393,0.0425,0.048,0.0501,0.0512,0.052,0.0551,0.0562,0.0431,0.0431,0.0431,0,0.0521,0.0531,0.0488,0.0502,0.0499,0.0443,0.0468,0.0458,0.0439,0.0439,0.0413,0.0418,0.0402,0.0431,0.0449,0.0446,0.0453,0.043,0.0513,0.0522,0.0529,0.0558,0.0569,0.0435,0.0435,0.0434,0.0434,0,0.0602,0.061,0.0631,0.0614,0.0612,0.0631,0.0592,0.0595,0.0567,0.0545,0.0564,0.0543,0.0539,0.0542,0.0516,0.0567,0.0554,0.0521,0.0477,0.0547,0.0573,0.0583,0.0442,0.044,0.0439,0.0438,0,0,0.0736,0.0692,0.0701,0.0693,0.0665,0.0671,0.0687,0.0681,0.0686,0.0674,0.0689,0.0693,0.0662,0.0658,0.0629,0.0647,0.0711,0.0612,0.0611,0.0634,0.0769,0.0797,0.081,0.0688,0.069,0.0691,0.0772,0,0.0815,0.0841,0.0802,0.0837,0.0845,0.0791,0.0805,0.079,0.0769,0.0773,0.0749,0.0754,0.0711,0.0709,0.0723,0.07,0.0739,0.0693,0.0704,0.0705,0.0715,0.0823,0.0853,0.093,0.0781,0.0783,0.0784,0,0.0912,0.0904,0.094,0.091,0.0912,0.0926,0.0917,0.092,0.0902,0.0885,0.0879,0.0844,0.0859,0.0813,0.0835,0.0806,0.0807,0.0796,0.0798,0.0801,0.0752,0.0833,0.0953,0.0966,0.0799,0.0798,0.0797,0,0.1011,0.1008,0.103,0.1023,0.0988,0.0999,0.0985,0.0964,0.0964,0.0956,0.0955,0.0949,0.0948,0.0945,0.091,0.0879,0.0937,0.0887,0.0926,0.0927,0.0944,0.0945,0.107,0.0938,0.0938,0.0938,0.0937,0,0.1106,0.1132,0.1073,0.1088,0.1114,0.1067,0.1095,0.1075,0.1057,0.1067,0.1019,0.1029,0.098,0.0986,0.0958,0.0982,0.098,0.0969,0.0962,0.0976,0.0978,0.0979,0.0975,0.0941,0.094,0.0939,0.0939,0,0.1223,0.1185,0.1205,0.1169,0.116,0.1182,0.1151,0.1163,0.1136,0.1149,0.115,0.111,0.1113,0.1076,0.1073,0.1055,0.1093,0.1074,0.1099,0.1095,0.1137,0.1135,0.1272,0.1289,0.1142,0.1144,0.1145,0,0.1289,0.1307,0.1271,0.1274,0.1262,0.1266,0.1264,0.1218,0.1219,0.1198,0.1213,0.1212,0.121,0.1219,0.119,0.1188,0.1172,0.1219,0.1171,0.1185,0.1177,0.1178,0.1181,0.1231,0.1233,0.1235,0.1236,0,0.1411,0.1391,0.1389,0.1381,0.138,0.1372,0.136,0.1365,0.1315,0.1318,0.132,0.1318,0.1314,0.1315,0.1306,0.1293,0.1258,0.125,0.126,0.1276,0.1292,0.1288,0.1131,0.1249,0.1247,0.1246,0.1246,0.1245,0.1507,0.1521,0.1498,0.1498,0.1484,0.1474,0.1484,0.1457,0.1458,0.1451,0.1423,0.1431,0.1411,0.1396,0.1385,0.1392,0.1369,0.1382,0.1386,0.1391,0.14,0.1286,0.139,0.1389,0.1389,0.1388,0.1388,0,0.163,0.1612,0.1612,0.1597,0.1597,0.1559,0.1544,0.1548,0.1555,0.1539,0.1536,0.154,0.154,0.151,0.1506,0.1517,0.1501,0.1519,0.152,0.1518,0.1419,0.1413,0.1532,0.1532,0.1532,0.1532,0.1532,0.1532,0.1695,0.1717,0.1693,0.1708,0.1689,0.1695,0.169,0.1681,0.1668,0.1674,0.1673,0.1652,0.1631,0.1625,0.1624,0.1615,0.1618,0.1642,0.1629,0.1538,0.1524,0.1511,0.1506,0.1642,0.1642,0.1727,0.1728,0.1728]},{"header":{"parameterUnit":"m.s-1","parameterCategory":1,"la1":30.2991,"la2":30.254,"lo1":-89.0895,"lo2":-89.0444,"dy":0.0017,"dx":0.0017,"nx":28,"ny":28,"refTime":"2025-06-20T03:00:00:Z","depth":0,"parameterNumber":3,"parameterNumberName":"V-component_of_WINDS"},"data":[0,0,0,0,0,0,0,0,0,0,0,0,0,0,0,0,0,0,0,0,0,0,0,0,0,0,0,0,0,0,0,0,0,0,0,0,0,0,0,0,0,0,0,0,0,0,0,0,0,0,0,0,0,0,0,0,0,0,-0.8657,-0.8657,0,-0.869,-0.869,-0.869,-0.8689,-0.8688,-0.8688,-0.8687,-0.8723,-0.8725,-0.8726,0,0,0,0,0,0,0,0,0,0,0,0,0,-0.8594,-0.8595,-0.8656,-0.8657,-0.8657,-0.869,-0.869,-0.869,-0.8689,-0.8688,-0.8688,-0.8687,-0.8723,-0.8724,-0.8726,0,0,0,0,0,0,0,0,0,0,0,0,0,-0.8624,-0.8596,-0.8656,-0.866,-0.8661,-0.8689,-0.869,-0.8691,-0.8689,-0.8688,-0.8687,-0.8687,-0.8722,-0.8724,-0.8726,-0.8754,0,0,-0.8733,-0.8734,0,0,0,0,0,0,0,0,-0.8622,-0.8626,-0.8659,-0.866,-0.8661,-0.8684,-0.8681,-0.8712,-0.8689,-0.8678,-0.8687,-0.8686,-0.8711,-0.8714,-0.8722,-0.8755,-0.8757,-0.8733,-0.8734,-0.8735,-0.8736,0,0,0,0,0,0,0,-0.862,-0.8624,-0.867,-0.866,-0.8661,-0.8661,-0.8665,-0.8687,-0.8698,-0.8679,-0.8679,-0.8683,-0.8711,-0.872,-0.8723,-0.8758,-0.8733,-0.8735,-0.8736,-0.8737,-0.8816,-0.8817,0,0,0,0,0,0,-0.8617,-0.8623,-0.8669,-0.8671,-0.8639,-0.8663,-0.8667,-0.8677,-0.8698,-0.87,-0.8684,-0.8683,-0.8717,-0.872,-0.8724,-0.8758,-0.8735,-0.8737,-0.8738,-0.8816,-0.8817,-0.8818,0,0,0,0,0,0,-0.8615,-0.8621,-0.8667,-0.8647,-0.8653,-0.8665,-0.8677,-0.8679,-0.8687,-0.8701,-0.8704,-0.869,-0.8716,-0.8721,-0.8746,-0.8759,-0.8738,-0.874,-0.8815,-0.8816,-0.8817,-0.8826,0,0,0,0,0,0,-0.8614,-0.862,-0.863,-0.8647,-0.8654,-0.8688,-0.8678,-0.868,-0.869,-0.869,-0.8708,-0.871,-0.8716,-0.8743,-0.8749,-0.8762,-0.8742,-0.8814,-0.8815,-0.8817,-0.8825,-0.8827,-0.883,0,0,0,0,0,-0.8611,-0.8632,-0.8631,-0.8636,-0.8666,-0.8689,-0.8693,-0.8699,-0.8691,-0.8702,-0.8711,-0.871,-0.8757,-0.8746,-0.8752,-0.8766,-0.8813,-0.8815,-0.8817,-0.8823,-0.8827,-0.883,0,0,0,0,0,0,-0.8617,-0.8634,-0.8633,-0.8659,-0.8673,-0.8689,-0.8702,-0.8702,-0.8718,-0.8717,-0.8724,-0.8728,-0.8753,-0.8762,-0.875,-0.8794,-0.8784,-0.8787,-0.8787,-0.8791,-0.8793,-0.8791,-0.8743,0,0,0,0,0,-0.8621,-0.8637,-0.8652,-0.8673,-0.868,-0.869,-0.87,-0.8703,-0.8718,-0.8724,-0.8735,-0.875,-0.8768,-0.878,-0.8797,-0.8826,-0.883,-0.8838,-0.8841,-0.8843,-0.8846,-0.8863,-0.8867,-0.8824,-0.8824,-0.8824,0,0,-0.863,-0.8641,-0.8651,-0.8675,-0.8686,-0.8703,-0.8695,-0.8714,-0.8727,-0.8727,-0.8751,-0.876,-0.8777,-0.8805,-0.8817,-0.8813,-0.8859,-0.8846,-0.8847,-0.8849,-0.8865,-0.8869,-0.8873,-0.8825,-0.8825,-0.8825,0,0,-0.8655,-0.8665,-0.8684,-0.8695,-0.8712,-0.8718,-0.8723,-0.8739,-0.8745,-0.877,-0.877,-0.8786,-0.8817,-0.883,-0.884,-0.8871,-0.887,-0.8876,-0.889,-0.8906,-0.8909,-0.8913,-0.8924,-0.8928,-0.8879,-0.8879,-0.8879,0,-0.8664,-0.869,-0.8694,-0.8714,-0.8724,-0.8724,-0.8745,-0.8755,-0.8777,-0.8785,-0.8779,-0.8818,-0.883,-0.8861,-0.8868,-0.8876,-0.8883,-0.8874,-0.8908,-0.8912,-0.8914,-0.8926,-0.893,-0.888,-0.888,-0.888,-0.8879,0,-0.87,-0.8718,-0.8732,-0.8753,-0.8765,-0.8785,-0.8793,-0.8805,-0.8808,-0.8815,-0.8841,-0.8855,-0.8875,-0.8883,-0.8885,-0.8914,-0.8911,-0.8907,-0.8897,-0.8919,-0.893,-0.8934,-0.8881,-0.888,-0.888,-0.888,0,0,-0.8729,-0.8752,-0.8757,-0.8767,-0.8785,-0.88,-0.882,-0.8839,-0.885,-0.8865,-0.8883,-0.8909,-0.8906,-0.8918,-0.8922,-0.8936,-0.896,-0.893,-0.8931,-0.8936,-0.8994,-0.8997,-0.9002,-0.896,-0.8961,-0.8961,-0.8993,0,-0.8757,-0.8791,-0.8797,-0.8828,-0.8845,-0.8846,-0.8863,-0.8877,-0.8885,-0.8901,-0.891,-0.8929,-0.8923,-0.893,-0.8944,-0.8954,-0.8972,-0.8952,-0.8977,-0.8978,-0.8973,-0.9007,-0.901,-0.9039,-0.8997,-0.8997,-0.8998,0,-0.8793,-0.8809,-0.8841,-0.8858,-0.8865,-0.8881,-0.89,-0.8915,-0.8931,-0.8936,-0.8949,-0.8952,-0.8974,-0.8963,-0.8994,-0.898,-0.8991,-0.8998,-0.8999,-0.9002,-0.899,-0.9011,-0.9048,-0.9053,-0.9004,-0.9004,-0.9003,0,-0.8812,-0.8841,-0.8864,-0.8872,-0.8892,-0.8903,-0.8912,-0.8927,-0.8939,-0.8956,-0.8964,-0.8983,-0.8994,-0.9009,-0.9017,-0.9009,-0.9048,-0.9038,-0.9054,-0.9053,-0.9062,-0.9061,-0.9102,-0.9068,-0.9068,-0.9068,-0.9068,0,-0.8842,-0.8862,-0.8873,-0.8887,-0.891,-0.8917,-0.8939,-0.8948,-0.8962,-0.8979,-0.8981,-0.8997,-0.9006,-0.9024,-0.9031,-0.9056,-0.906,-0.9066,-0.9067,-0.9066,-0.9065,-0.9073,-0.9071,-0.9069,-0.9069,-0.9069,-0.9069,0,-0.8866,-0.8874,-0.89,-0.8917,-0.8921,-0.8938,-0.8952,-0.8967,-0.8975,-0.8996,-0.9002,-0.9014,-0.9035,-0.9045,-0.9071,-0.9076,-0.9104,-0.9104,-0.9099,-0.9099,-0.9115,-0.9113,-0.9162,-0.9169,-0.913,-0.9131,-0.9131,0,-0.8885,-0.89,-0.8919,-0.893,-0.8939,-0.8957,-0.8969,-0.8976,-0.8989,-0.9008,-0.9021,-0.9042,-0.9059,-0.9093,-0.9105,-0.9125,-0.9126,-0.9142,-0.9129,-0.9128,-0.9127,-0.9126,-0.9128,-0.9144,-0.9145,-0.9145,-0.9145,0,-0.8918,-0.8921,-0.8938,-0.8956,-0.897,-0.8985,-0.9,-0.9009,-0.9019,-0.9033,-0.9054,-0.9068,-0.9094,-0.9116,-0.9137,-0.9147,-0.9148,-0.9149,-0.9154,-0.9152,-0.9149,-0.9152,-0.9105,-0.9148,-0.9148,-0.9147,-0.9147,-0.9147,-0.894,-0.8954,-0.8969,-0.8988,-0.9,-0.9014,-0.9029,-0.9038,-0.9056,-0.9078,-0.9081,-0.9104,-0.9121,-0.9149,-0.916,-0.9179,-0.9176,-0.9182,-0.9184,-0.9186,-0.9187,-0.9145,-0.9183,-0.9183,-0.9183,-0.9183,-0.9183,0,-0.8973,-0.8983,-0.9,-0.9021,-0.9036,-0.9035,-0.9051,-0.9064,-0.9084,-0.9099,-0.9116,-0.9141,-0.9162,-0.9176,-0.9197,-0.921,-0.9211,-0.9215,-0.9215,-0.9217,-0.9189,-0.9183,-0.9214,-0.9214,-0.9214,-0.9214,-0.9214,-0.9214,-0.8992,-0.9016,-0.9022,-0.9052,-0.9062,-0.9084,-0.9093,-0.9107,-0.9119,-0.9146,-0.9163,-0.9172,-0.9187,-0.921,-0.9229,-0.9233,-0.9241,-0.9246,-0.9249,-0.9222,-0.9219,-0.9216,-0.921,-0.9247,-0.9247,-0.9276,-0.9276,-0.9277]}]]